Time,TemperatureF,DewpointF,PressureIn,WindDirection,WindDirectionDegrees,WindSpeedMPH,WindSpeedGustMPH,Humidity,HourlyPrecipIn,Conditions,Clouds,dailyrainin,SoftwareType,DateUTC
2013-07-01 00:00:00,71.0,71.0,30.00,NNE,22,0.0,3.0,100,0.00,,,-99.99,Weather View 32 v60,2013-07-01 04:00:00,
2013-07-01 00:05:00,71.0,71.0,30.00,NNE,22,0.0,3.0,100,0.00,,,-99.99,Weather View 32 v60,2013-07-01 04:05:00,
2013-07-01 00:10:00,71.0,71.0,30.00,East,90,0.0,3.0,100,0.00,,,-99.99,Weather View 32 v60,2013-07-01 04:10:00,
2013-07-01 00:15:00,71.0,71.0,30.00,ENE,67,0.0,3.0,100,0.00,,,-99.99,Weather View 32 v60,2013-07-01 04:15:00,
2013-07-01 00:20:00,71.0,71.0,30.00,NE,45,0.0,3.0,100,0.00,,,-99.99,Weather View 32 v60,2013-07-01 04:20:00,
2013-07-01 00:25:00,71.0,71.0,30.00,ENE,67,0.0,0.0,100,0.00,,,-99.99,Weather View 32 v60,2013-07-01 04:25:00,
2013-07-01 00:30:00,71.0,71.0,30.00,ENE,67,0.0,0.0,100,0.00,,,-99.99,Weather View 32 v60,2013-07-01 04:30:00,
2013-07-01 00:35:00,71.0,71.0,30.00,SE,135,0.0,0.0,100,0.00,,,-99.99,Weather View 32 v60,2013-07-01 04:35:00,
2013-07-01 00:45:00,71.0,71.0,30.00,NW,315,0.0,3.0,100,0.00,,,-99.99,Weather View 32 v60,2013-07-01 04:45:00,
2013-07-01 00:54:00,71.0,71.0,30.00,NNW,337,0.0,3.0,100,0.00,,,-99.99,Weather View 32 v60,2013-07-01 04:54:00,
2013-07-01 01:00:00,71.0,71.0,30.00,ENE,67,0.0,3.0,100,0.00,,,-99.99,Weather View 32 v60,2013-07-01 05:00:00,
2013-07-01 01:05:00,71.0,71.0,30.00,SE,135,0.0,3.0,100,0.00,,,-99.99,Weather View 32 v60,2013-07-01 05:05:00,
2013-07-01 01:15:00,71.0,71.0,30.00,NE,45,0.0,3.0,100,0.00,,,-99.99,Weather View 32 v60,2013-07-01 05:15:00,
2013-07-01 01:25:00,71.0,71.0,30.00,North,360,0.0,3.0,100,0.00,,,-99.99,Weather View 32 v60,2013-07-01 05:25:00,
2013-07-01 01:35:00,71.0,71.0,30.00,North,360,0.0,3.0,100,0.00,,,-99.99,Weather View 32 v60,2013-07-01 05:35:00,
2013-07-01 01:45:00,71.0,71.0,30.00,NNE,22,0.0,3.0,100,0.00,,,-99.99,Weather View 32 v60,2013-07-01 05:45:00,
2013-07-01 01:54:00,71.0,71.0,30.00,ENE,67,0.0,3.0,100,0.00,,,-99.99,Weather View 32 v60,2013-07-01 05:54:00,
2013-07-01 02:00:00,71.0,71.0,30.00,NNE,22,0.0,4.0,100,0.00,,,-99.99,Weather View 32 v60,2013-07-01 06:00:00,
2013-07-01 02:05:00,71.0,71.0,30.00,NNE,22,0.0,4.0,100,0.00,,,-99.99,Weather View 32 v60,2013-07-01 06:05:00,
2013-07-01 02:15:00,71.0,71.0,29.99,NE,45,0.0,4.0,100,0.00,,,-99.99,Weather View 32 v60,2013-07-01 06:15:00,
2013-07-01 02:20:00,71.0,71.0,29.99,NNE,22,0.0,4.0,100,0.00,,,-99.99,Weather View 32 v60,2013-07-01 06:20:00,
2013-07-01 02:30:00,71.0,71.0,29.99,East,90,1.0,4.0,100,0.00,,,-99.99,Weather View 32 v60,2013-07-01 06:30:00,
2013-07-01 02:35:00,71.0,71.0,29.99,North,360,0.0,4.0,100,0.00,,,-99.99,Weather View 32 v60,2013-07-01 06:35:00,
2013-07-01 02:45:00,71.0,71.0,29.99,North,360,0.0,4.0,100,0.00,,,-99.99,Weather View 32 v60,2013-07-01 06:45:00,
2013-07-01 02:55:00,71.0,71.0,29.99,North,360,0.0,4.0,100,0.00,,,-99.99,Weather View 32 v60,2013-07-01 06:55:00,
2013-07-01 03:05:00,71.0,71.0,29.98,NNE,22,0.0,3.0,100,0.00,,,-99.99,Weather View 32 v60,2013-07-01 07:05:00,
2013-07-01 03:10:00,71.0,71.0,29.98,ENE,67,0.0,3.0,100,0.00,,,-99.99,Weather View 32 v60,2013-07-01 07:10:00,
2013-07-01 03:15:00,71.0,71.0,29.98,NE,45,0.0,3.0,100,0.00,,,-99.99,Weather View 32 v60,2013-07-01 07:15:00,
2013-07-01 03:20:00,71.0,71.0,29.98,SE,135,0.0,3.0,100,0.00,,,-99.99,Weather View 32 v60,2013-07-01 07:20:00,
2013-07-01 03:25:00,71.0,71.0,29.98,NE,45,0.0,3.0,100,0.00,,,-99.99,Weather View 32 v60,2013-07-01 07:25:00,
2013-07-01 03:35:00,71.0,71.0,29.98,ENE,67,0.0,3.0,100,0.00,,,-99.99,Weather View 32 v60,2013-07-01 07:35:00,
2013-07-01 03:40:00,71.0,71.0,29.98,North,360,0.0,3.0,100,0.00,,,-99.99,Weather View 32 v60,2013-07-01 07:40:00,
2013-07-01 03:45:00,71.0,71.0,29.98,ENE,67,0.0,3.0,100,0.00,,,-99.99,Weather View 32 v60,2013-07-01 07:45:00,
2013-07-01 03:55:00,71.0,71.0,29.98,NNE,22,0.0,3.0,100,0.00,,,-99.99,Weather View 32 v60,2013-07-01 07:55:00,
2013-07-01 04:00:00,71.0,71.0,29.99,NE,45,0.0,3.0,100,0.00,,,-99.99,Weather View 32 v60,2013-07-01 08:00:00,
2013-07-01 04:10:00,71.0,71.0,29.99,ESE,112,0.0,3.0,100,0.00,,,-99.99,Weather View 32 v60,2013-07-01 08:10:00,
2013-07-01 04:15:00,71.0,71.0,29.99,ESE,112,0.0,3.0,100,0.00,,,-99.99,Weather View 32 v60,2013-07-01 08:15:00,
2013-07-01 04:20:00,71.0,71.0,29.99,SE,135,4.0,5.0,100,0.00,,,-99.99,Weather View 32 v60,2013-07-01 08:20:00,
2013-07-01 04:25:00,71.0,71.0,29.99,NNE,22,0.0,5.0,100,0.00,,,-99.99,Weather View 32 v60,2013-07-01 08:25:00,
2013-07-01 04:35:00,71.0,71.0,29.99,SE,135,0.0,5.0,100,0.00,,,-99.99,Weather View 32 v60,2013-07-01 08:35:00,
2013-07-01 04:40:00,71.0,71.0,30.00,SE,135,0.0,5.0,100,0.00,,,-99.99,Weather View 32 v60,2013-07-01 08:40:00,
2013-07-01 04:50:00,71.0,71.0,30.00,NNW,337,0.0,5.0,100,0.00,,,-99.99,Weather View 32 v60,2013-07-01 08:50:00,
2013-07-01 04:55:00,71.0,71.0,30.00,SE,135,0.0,5.0,100,0.00,,,-99.99,Weather View 32 v60,2013-07-01 08:55:00,
2013-07-01 05:05:00,71.0,71.0,30.00,North,360,0.0,5.0,100,0.00,,,-99.99,Weather View 32 v60,2013-07-01 09:05:00,
2013-07-01 05:10:00,71.0,71.0,30.00,North,360,0.0,5.0,100,0.00,,,-99.99,Weather View 32 v60,2013-07-01 09:10:00,
2013-07-01 05:15:00,71.0,71.0,30.00,North,360,0.0,5.0,100,0.00,,,-99.99,Weather View 32 v60,2013-07-01 09:15:00,
2013-07-01 05:20:00,71.0,71.0,30.00,NE,45,0.0,5.0,100,0.00,,,-99.99,Weather View 32 v60,2013-07-01 09:20:00,
2013-07-01 05:25:00,71.0,71.0,30.00,NNE,22,0.0,0.0,100,0.00,,,-99.99,Weather View 32 v60,2013-07-01 09:25:00,
2013-07-01 05:35:00,71.0,71.0,30.00,North,360,0.0,3.0,100,0.00,,,-99.99,Weather View 32 v60,2013-07-01 09:35:00,
2013-07-01 05:45:00,71.0,71.0,30.00,North,360,0.0,4.0,100,0.00,,,-99.99,Weather View 32 v60,2013-07-01 09:45:00,
2013-07-01 05:50:00,71.0,71.0,30.01,North,360,0.0,4.0,100,0.00,,,-99.99,Weather View 32 v60,2013-07-01 09:50:00,
2013-07-01 05:55:00,71.0,71.0,30.01,North,360,0.0,4.0,100,0.00,,,-99.99,Weather View 32 v60,2013-07-01 09:55:00,
2013-07-01 06:05:00,71.0,71.0,30.01,North,360,0.0,4.0,100,0.00,,,-99.99,Weather View 32 v60,2013-07-01 10:05:00,
2013-07-01 06:10:00,71.0,71.0,30.01,NE,45,0.0,4.0,100,0.00,,,-99.99,Weather View 32 v60,2013-07-01 10:10:00,
2013-07-01 06:20:00,71.0,71.0,30.02,NNE,22,0.0,4.0,100,0.00,,,-99.99,Weather View 32 v60,2013-07-01 10:20:00,
2013-07-01 06:25:00,71.0,71.0,30.02,NNE,22,0.0,4.0,100,0.00,,,-99.99,Weather View 32 v60,2013-07-01 10:25:00,
2013-07-01 06:35:00,71.0,71.0,30.01,NNE,22,0.0,4.0,100,0.00,,,-99.99,Weather View 32 v60,2013-07-01 10:35:00,
2013-07-01 06:40:00,71.0,71.0,30.00,NNE,22,0.0,2.0,100,0.00,,,-99.99,Weather View 32 v60,2013-07-01 10:40:00,
2013-07-01 06:45:00,71.0,71.0,30.00,North,360,0.0,2.0,100,0.00,,,-99.99,Weather View 32 v60,2013-07-01 10:45:00,
2013-07-01 06:55:00,71.0,71.0,30.00,North,360,1.0,3.0,100,0.00,,,-99.99,Weather View 32 v60,2013-07-01 10:55:00,
2013-07-01 07:00:00,71.0,71.0,30.00,North,360,0.0,3.0,100,0.00,,,-99.99,Weather View 32 v60,2013-07-01 11:00:00,
2013-07-01 07:05:00,71.0,71.0,30.00,NNE,22,0.0,3.0,100,0.00,,,-99.99,Weather View 32 v60,2013-07-01 11:05:00,
2013-07-01 07:10:00,71.0,71.0,29.99,NNE,22,2.0,4.0,100,0.00,,,-99.99,Weather View 32 v60,2013-07-01 11:10:00,
2013-07-01 07:15:00,71.0,71.0,29.99,NNE,22,0.0,5.0,100,0.00,,,-99.99,Weather View 32 v60,2013-07-01 11:15:00,
2013-07-01 07:25:00,71.0,71.0,30.02,WNW,292,0.0,5.0,100,0.00,,,-99.99,Weather View 32 v60,2013-07-01 11:25:00,
2013-07-01 07:30:00,71.0,71.0,30.02,West,270,0.0,5.0,100,0.00,,,-99.99,Weather View 32 v60,2013-07-01 11:30:00,
2013-07-01 07:40:00,71.0,71.0,30.02,SE,135,4.0,6.0,100,0.00,,,-99.99,Weather View 32 v60,2013-07-01 11:40:00,
2013-07-01 07:45:00,70.0,70.0,30.02,WNW,292,3.0,9.0,100,0.00,,,-99.99,Weather View 32 v60,2013-07-01 11:45:00,
2013-07-01 07:50:00,70.0,70.0,30.02,West,270,3.0,9.0,100,0.00,,,-99.99,Weather View 32 v60,2013-07-01 11:50:00,
2013-07-01 07:55:00,69.0,69.0,30.02,SE,135,5.0,9.0,100,0.00,,,-99.99,Weather View 32 v60,2013-07-01 11:55:00,
2013-07-01 08:00:00,69.0,69.0,30.02,East,90,0.0,9.0,100,0.00,,,-99.99,Weather View 32 v60,2013-07-01 12:00:00,
2013-07-01 08:05:00,68.0,68.0,30.02,West,270,5.0,9.0,100,0.00,,,-99.99,Weather View 32 v60,2013-07-01 12:05:00,
2013-07-01 08:10:00,68.0,68.0,30.04,SW,225,0.0,9.0,100,0.00,,,-99.99,Weather View 32 v60,2013-07-01 12:10:00,
2013-07-01 08:15:00,68.0,68.0,30.04,SW,225,0.0,9.0,100,0.00,,,-99.99,Weather View 32 v60,2013-07-01 12:15:00,
2013-07-01 08:25:00,68.0,68.0,30.05,West,270,0.0,9.0,100,0.00,,,-99.99,Weather View 32 v60,2013-07-01 12:25:00,
2013-07-01 08:30:00,68.0,68.0,30.06,SE,135,0.0,9.0,100,0.00,,,-99.99,Weather View 32 v60,2013-07-01 12:30:00,
2013-07-01 08:40:00,68.0,68.0,30.06,NW,315,0.0,9.0,100,0.00,,,-99.99,Weather View 32 v60,2013-07-01 12:40:00,
2013-07-01 08:45:00,68.0,68.0,30.06,NW,315,0.0,8.0,100,0.00,,,-99.99,Weather View 32 v60,2013-07-01 12:45:00,
2013-07-01 08:50:00,68.0,68.0,30.06,NW,315,0.0,8.0,100,0.00,,,-99.99,Weather View 32 v60,2013-07-01 12:50:00,
2013-07-01 08:58:00,68.0,68.0,30.06,NE,45,0.0,6.0,100,0.00,,,-99.99,Weather View 32 v60,2013-07-01 12:58:00,
2013-07-01 09:05:00,70.0,70.0,30.05,NE,45,0.0,6.0,100,0.00,,,-99.99,Weather View 32 v60,2013-07-01 13:05:00,
2013-07-01 09:10:00,70.0,70.0,30.05,WNW,292,0.0,3.0,100,0.00,,,-99.99,Weather View 32 v60,2013-07-01 13:10:00,
2013-07-01 09:15:00,71.0,71.0,30.05,NNW,337,0.0,3.0,100,0.00,,,-99.99,Weather View 32 v60,2013-07-01 13:15:00,
2013-07-01 09:20:00,71.0,71.0,30.05,NNW,337,0.0,3.0,100,0.00,,,-99.99,Weather View 32 v60,2013-07-01 13:20:00,
2013-07-01 09:30:00,73.0,73.0,30.04,NNW,337,0.0,3.0,100,0.00,,,-99.99,Weather View 32 v60,2013-07-01 13:30:00,
2013-07-01 09:40:00,72.0,72.0,30.04,ENE,67,0.0,3.0,100,0.00,,,-99.99,Weather View 32 v60,2013-07-01 13:40:00,
2013-07-01 09:45:00,72.0,72.0,30.04,ENE,67,0.0,3.0,100,0.00,,,-99.99,Weather View 32 v60,2013-07-01 13:45:00,
2013-07-01 09:50:00,72.0,72.0,30.04,ENE,67,0.0,3.0,100,0.00,,,-99.99,Weather View 32 v60,2013-07-01 13:50:00,
2013-07-01 09:55:00,72.0,72.0,30.04,NNE,22,0.0,0.0,100,0.00,,,-99.99,Weather View 32 v60,2013-07-01 13:55:00,
2013-07-01 10:05:00,73.0,73.0,30.04,SE,135,0.0,0.0,100,0.00,,,-99.99,Weather View 32 v60,2013-07-01 14:05:00,
2013-07-01 10:10:00,73.0,73.0,30.04,SE,135,0.0,0.0,100,0.00,,,-99.99,Weather View 32 v60,2013-07-01 14:10:00,
2013-07-01 10:15:00,73.0,73.0,30.04,North,360,0.0,0.0,100,0.00,,,-99.99,Weather View 32 v60,2013-07-01 14:15:00,
2013-07-01 10:25:00,73.0,73.0,30.04,NNE,22,0.0,0.0,100,0.00,,,-99.99,Weather View 32 v60,2013-07-01 14:25:00,
2013-07-01 10:35:00,73.0,73.0,30.04,NNE,22,0.0,0.0,100,0.00,,,-99.99,Weather View 32 v60,2013-07-01 14:35:00,
2013-07-01 10:40:00,73.0,73.0,30.04,NNW,337,0.0,0.0,100,0.00,,,-99.99,Weather View 32 v60,2013-07-01 14:40:00,
2013-07-01 10:45:00,73.0,73.0,30.04,NNW,337,0.0,0.0,100,0.00,,,-99.99,Weather View 32 v60,2013-07-01 14:45:00,
2013-07-01 10:55:00,74.0,74.0,30.04,NNW,337,0.0,0.0,100,0.00,,,-99.99,Weather View 32 v60,2013-07-01 14:55:00,
2013-07-01 11:00:00,75.0,75.0,30.04,North,360,0.0,0.0,100,0.00,,,-99.99,Weather View 32 v60,2013-07-01 15:00:00,
2013-07-01 11:05:00,75.0,75.0,30.04,SE,135,0.0,0.0,100,0.00,,,-99.99,Weather View 32 v60,2013-07-01 15:05:00,
2013-07-01 11:10:00,75.0,75.0,30.04,NE,45,0.0,0.0,100,0.00,,,-99.99,Weather View 32 v60,2013-07-01 15:10:00,
2013-07-01 11:15:00,76.0,76.0,30.04,North,360,0.0,0.0,100,0.00,,,-99.99,Weather View 32 v60,2013-07-01 15:15:00,
2013-07-01 11:25:00,75.0,75.0,30.04,SW,225,0.0,3.0,100,0.00,,,-99.99,Weather View 32 v60,2013-07-01 15:25:00,
2013-07-01 11:30:00,75.0,75.0,30.04,SE,135,0.0,4.0,100,0.00,,,-99.99,Weather View 32 v60,2013-07-01 15:30:00,
2013-07-01 11:40:00,74.0,74.0,30.04,West,270,0.0,4.0,100,0.00,,,-99.99,Weather View 32 v60,2013-07-01 15:40:00,
2013-07-01 11:45:00,74.0,74.0,30.04,West,270,0.0,4.0,100,0.00,,,-99.99,Weather View 32 v60,2013-07-01 15:45:00,
2013-07-01 11:50:00,75.0,75.0,30.04,SE,135,0.0,4.0,100,0.00,,,-99.99,Weather View 32 v60,2013-07-01 15:50:00,
2013-07-01 12:00:00,75.0,75.0,30.05,SW,225,0.0,4.0,100,0.00,,,-99.99,Weather View 32 v60,2013-07-01 16:00:00,
2013-07-01 12:10:00,75.0,75.0,30.04,ESE,112,0.0,4.0,100,0.00,,,-99.99,Weather View 32 v60,2013-07-01 16:10:00,
2013-07-01 12:15:00,75.0,75.0,30.04,North,360,0.0,4.0,100,0.00,,,-99.99,Weather View 32 v60,2013-07-01 16:15:00,
2013-07-01 12:25:00,75.0,75.0,30.04,NE,45,0.0,4.0,100,0.00,,,-99.99,Weather View 32 v60,2013-07-01 16:25:00,
2013-07-01 12:30:00,76.0,76.0,30.04,NNW,337,3.0,4.0,100,0.00,,,-99.99,Weather View 32 v60,2013-07-01 16:30:00,
2013-07-01 12:35:00,75.0,75.0,30.04,East,90,0.0,4.0,100,0.00,,,-99.99,Weather View 32 v60,2013-07-01 16:35:00,
2013-07-01 12:40:00,75.0,75.0,30.04,North,360,0.0,4.0,100,0.00,,,-99.99,Weather View 32 v60,2013-07-01 16:40:00,
2013-07-01 12:50:00,75.0,75.0,30.04,NNE,22,0.0,5.0,100,0.00,,,-99.99,Weather View 32 v60,2013-07-01 16:50:00,
2013-07-01 13:00:00,74.0,74.0,30.04,SE,135,0.0,5.0,100,0.00,,,-99.99,Weather View 32 v60,2013-07-01 17:00:00,
2013-07-01 13:05:00,74.0,74.0,30.04,NE,45,0.0,5.0,100,0.00,,,-99.99,Weather View 32 v60,2013-07-01 17:05:00,
2013-07-01 13:15:00,74.0,74.0,30.05,SE,135,0.0,5.0,100,0.00,,,-99.99,Weather View 32 v60,2013-07-01 17:15:00,
2013-07-01 13:20:00,74.0,74.0,30.05,ENE,67,0.0,5.0,100,0.00,,,-99.99,Weather View 32 v60,2013-07-01 17:20:00,
2013-07-01 13:30:00,75.0,75.0,30.05,East,90,0.0,5.0,100,0.00,,,-99.99,Weather View 32 v60,2013-07-01 17:30:00,
2013-07-01 13:35:00,74.0,74.0,30.05,ESE,112,0.0,10.0,100,0.00,,,-99.99,Weather View 32 v60,2013-07-01 17:35:00,
2013-07-01 13:45:00,74.0,74.0,30.05,SE,135,0.0,10.0,100,0.00,,,-99.99,Weather View 32 v60,2013-07-01 17:45:00,
2013-07-01 13:55:00,75.0,75.0,30.04,SE,135,0.0,10.0,100,0.00,,,-99.99,Weather View 32 v60,2013-07-01 17:55:00,
2013-07-01 14:01:00,75.0,74.7,30.04,SW,225,0.0,10.0,99,0.00,,,-99.99,Weather View 32 v60,2013-07-01 18:01:00,
2013-07-01 14:10:00,76.0,75.7,30.04,ENE,67,0.0,10.0,99,0.00,,,-99.99,Weather View 32 v60,2013-07-01 18:10:00,
2013-07-01 14:15:00,75.0,74.1,30.04,SE,135,0.0,10.0,97,0.00,,,-99.99,Weather View 32 v60,2013-07-01 18:15:00,
2013-07-01 14:25:00,75.0,74.7,30.03,East,90,0.0,10.0,99,0.00,,,-99.99,Weather View 32 v60,2013-07-01 18:25:00,
2013-07-01 14:35:00,74.0,73.7,30.03,NNE,22,0.0,10.0,99,0.00,,,-99.99,Weather View 32 v60,2013-07-01 18:35:00,
2013-07-01 14:45:00,74.0,74.0,30.04,East,90,0.0,9.0,100,0.00,,,-99.99,Weather View 32 v60,2013-07-01 18:45:00,
2013-07-01 14:55:00,74.0,74.0,30.04,North,360,0.0,9.0,100,0.00,,,-99.99,Weather View 32 v60,2013-07-01 18:55:00,
2013-07-01 15:00:00,74.0,74.0,30.04,NE,45,1.0,7.0,100,0.00,,,-99.99,Weather View 32 v60,2013-07-01 19:00:00,
2013-07-01 15:10:00,74.0,74.0,30.04,East,90,3.0,8.0,100,0.00,,,-99.99,Weather View 32 v60,2013-07-01 19:10:00,
2013-07-01 15:20:00,74.0,74.0,30.04,NW,315,0.0,8.0,100,0.00,,,-99.99,Weather View 32 v60,2013-07-01 19:20:00,
2013-07-01 15:25:00,73.0,73.0,30.04,SE,135,0.0,8.0,100,0.00,,,-99.99,Weather View 32 v60,2013-07-01 19:25:00,
2013-07-01 15:35:00,74.0,74.0,30.04,West,270,0.0,8.0,100,0.00,,,-99.99,Weather View 32 v60,2013-07-01 19:35:00,
2013-07-01 15:40:00,74.0,74.0,30.05,SE,135,0.0,8.0,100,0.00,,,-99.99,Weather View 32 v60,2013-07-01 19:40:00,
2013-07-01 15:50:00,74.0,73.7,30.05,ENE,67,0.0,8.0,99,0.00,,,-99.99,Weather View 32 v60,2013-07-01 19:50:00,
2013-07-01 15:55:00,73.0,72.7,30.05,SE,135,3.0,8.0,99,0.00,,,-99.99,Weather View 32 v60,2013-07-01 19:55:00,
2013-07-01 16:02:00,74.0,73.7,30.05,SW,225,2.0,8.0,99,0.00,,,-99.99,Weather View 32 v60,2013-07-01 20:02:00,
2013-07-01 16:10:00,74.0,73.7,30.05,NW,315,3.0,8.0,99,0.00,,,-99.99,Weather View 32 v60,2013-07-01 20:10:00,
2013-07-01 16:15:00,74.0,73.7,30.05,East,90,1.0,8.0,99,0.00,,,-99.99,Weather View 32 v60,2013-07-01 20:15:00,
2013-07-01 16:25:00,74.0,73.7,30.05,SE,135,0.0,8.0,99,0.00,,,-99.99,Weather View 32 v60,2013-07-01 20:25:00,
2013-07-01 16:30:00,74.0,73.1,30.05,North,360,3.0,8.0,97,0.00,,,-99.99,Weather View 32 v60,2013-07-01 20:30:00,
2013-07-01 16:35:00,75.0,74.4,30.05,WNW,292,0.0,9.0,98,0.00,,,-99.99,Weather View 32 v60,2013-07-01 20:35:00,
2013-07-01 16:45:00,76.0,73.8,30.05,ESE,112,3.0,9.0,93,0.00,,,-99.99,Weather View 32 v60,2013-07-01 20:45:00,
2013-07-01 16:55:00,75.0,72.5,30.05,East,90,3.0,9.0,92,0.00,,,-99.99,Weather View 32 v60,2013-07-01 20:55:00,
2013-07-01 17:00:00,76.0,73.8,30.05,ESE,112,1.0,10.0,93,0.00,,,-99.99,Weather View 32 v60,2013-07-01 21:00:00,
2013-07-01 17:10:00,77.0,74.5,30.04,SE,135,0.0,10.0,92,0.00,,,-99.99,Weather View 32 v60,2013-07-01 21:10:00,
2013-07-01 17:20:00,79.0,73.7,30.03,SE,135,3.0,10.0,84,0.00,,,-99.99,Weather View 32 v60,2013-07-01 21:20:00,
2013-07-01 17:25:00,78.0,73.1,30.03,NE,45,0.0,10.0,85,0.00,,,-99.99,Weather View 32 v60,2013-07-01 21:25:00,
2013-07-01 17:35:00,77.0,73.5,30.03,East,90,1.0,10.0,89,0.00,,,-99.99,Weather View 32 v60,2013-07-01 21:35:00,
2013-07-01 17:40:00,77.0,73.2,30.04,SE,135,0.0,10.0,88,0.00,,,-99.99,Weather View 32 v60,2013-07-01 21:40:00,
2013-07-01 17:50:00,76.0,72.8,30.04,ESE,112,0.0,10.0,90,0.00,,,-99.99,Weather View 32 v60,2013-07-01 21:50:00,
2013-07-01 18:00:00,76.0,73.5,30.05,SE,135,0.0,8.0,92,0.00,,,-99.99,Weather View 32 v60,2013-07-01 22:00:00,
2013-07-01 18:10:00,76.0,73.8,30.05,SE,135,0.0,8.0,93,0.00,,,-99.99,Weather View 32 v60,2013-07-01 22:10:00,
2013-07-01 18:15:00,76.0,73.8,30.05,NE,45,0.0,8.0,93,0.00,,,-99.99,Weather View 32 v60,2013-07-01 22:15:00,
2013-07-01 18:25:00,76.0,73.8,30.05,SE,135,0.0,7.0,93,0.00,,,-99.99,Weather View 32 v60,2013-07-01 22:25:00,
2013-07-01 18:30:00,76.0,73.5,30.05,SE,135,0.0,7.0,92,0.00,,,-99.99,Weather View 32 v60,2013-07-01 22:30:00,
2013-07-01 18:35:00,76.0,73.8,30.05,North,360,0.0,7.0,93,0.00,,,-99.99,Weather View 32 v60,2013-07-01 22:35:00,
2013-07-01 18:45:00,76.0,73.2,30.06,SE,135,0.0,7.0,91,0.00,,,-99.99,Weather View 32 v60,2013-07-01 22:45:00,
2013-07-01 18:55:00,76.0,73.8,30.06,SE,135,2.0,7.0,93,0.00,,,-99.99,Weather View 32 v60,2013-07-01 22:55:00,
2013-07-01 19:04:00,76.0,73.8,30.06,SE,135,0.0,7.0,93,0.00,,,-99.99,Weather View 32 v60,2013-07-01 23:04:00,
2013-07-01 19:10:00,76.0,73.5,30.06,North,360,0.0,7.0,92,0.00,,,-99.99,Weather View 32 v60,2013-07-01 23:10:00,
2013-07-01 19:20:00,76.0,73.5,30.06,SE,135,0.0,7.0,92,0.00,,,-99.99,Weather View 32 v60,2013-07-01 23:20:00,
2013-07-01 19:25:00,76.0,73.8,30.06,ESE,112,0.0,7.0,93,0.00,,,-99.99,Weather View 32 v60,2013-07-01 23:25:00,
2013-07-01 19:35:00,76.0,73.8,30.06,SW,225,0.0,7.0,93,0.00,,,-99.99,Weather View 32 v60,2013-07-01 23:35:00,
2013-07-01 19:45:00,75.0,73.1,30.07,WNW,292,0.0,7.0,94,0.00,,,-99.99,Weather View 32 v60,2013-07-01 23:45:00,
2013-07-01 19:50:00,75.0,73.1,30.08,NE,45,4.0,6.0,94,0.00,,,-99.99,Weather View 32 v60,2013-07-01 23:50:00,
2013-07-01 19:55:00,75.0,73.5,30.08,East,90,0.0,6.0,95,0.00,,,-99.99,Weather View 32 v60,2013-07-01 23:55:00,
2013-07-01 20:04:00,75.0,73.1,30.08,SE,135,0.0,6.0,94,0.00,,,-99.99,Weather View 32 v60,2013-07-02 00:04:00,
2013-07-01 20:10:00,75.0,73.5,30.08,SE,135,0.0,6.0,95,0.00,,,-99.99,Weather View 32 v60,2013-07-02 00:10:00,
2013-07-01 20:15:00,74.0,72.8,30.08,NE,45,0.0,6.0,96,0.00,,,-99.99,Weather View 32 v60,2013-07-02 00:15:00,
2013-07-01 20:20:00,74.0,72.8,30.08,SE,135,0.0,6.0,96,0.00,,,-99.99,Weather View 32 v60,2013-07-02 00:20:00,
2013-07-01 20:25:00,74.0,73.1,30.08,NNE,22,0.0,6.0,97,0.00,,,-99.99,Weather View 32 v60,2013-07-02 00:25:00,
2013-07-01 20:35:00,74.0,73.1,30.08,ENE,67,0.0,7.0,97,0.00,,,-99.99,Weather View 32 v60,2013-07-02 00:35:00,
2013-07-01 20:45:00,73.0,72.4,30.08,East,90,0.0,7.0,98,0.00,,,-99.99,Weather View 32 v60,2013-07-02 00:45:00,
2013-07-01 20:50:00,74.0,73.1,30.08,ESE,112,0.0,7.0,97,0.00,,,-99.99,Weather View 32 v60,2013-07-02 00:50:00,
2013-07-01 20:55:00,73.0,72.4,30.08,SW,225,7.0,7.0,98,0.00,,,-99.99,Weather View 32 v60,2013-07-02 00:55:00,
2013-07-01 21:00:00,74.0,73.1,30.08,SE,135,0.0,7.0,97,0.00,,,-99.99,Weather View 32 v60,2013-07-02 01:00:00,
2013-07-01 21:05:00,73.0,72.7,30.08,North,360,0.0,7.0,99,0.00,,,-99.99,Weather View 32 v60,2013-07-02 01:05:00,
2013-07-01 21:15:00,73.0,72.7,30.08,NE,45,0.0,7.0,99,0.00,,,-99.99,Weather View 32 v60,2013-07-02 01:15:00,
2013-07-01 21:25:00,73.0,73.0,30.09,ENE,67,0.0,7.0,100,0.00,,,-99.99,Weather View 32 v60,2013-07-02 01:25:00,
2013-07-01 21:30:00,73.0,72.7,30.10,ESE,112,0.0,7.0,99,0.00,,,-99.99,Weather View 32 v60,2013-07-02 01:30:00,
2013-07-01 21:35:00,73.0,73.0,30.10,SE,135,0.0,7.0,100,0.00,,,-99.99,Weather View 32 v60,2013-07-02 01:35:00,
2013-07-01 21:40:00,73.0,73.0,30.11,NW,315,0.0,7.0,100,0.00,,,-99.99,Weather View 32 v60,2013-07-02 01:40:00,
2013-07-01 21:45:00,73.0,73.0,30.11,East,90,0.0,7.0,100,0.00,,,-99.99,Weather View 32 v60,2013-07-02 01:45:00,
2013-07-01 21:55:00,73.0,73.0,30.11,East,90,0.0,7.0,100,0.00,,,-99.99,Weather View 32 v60,2013-07-02 01:55:00,
2013-07-01 22:05:00,73.0,73.0,30.12,North,360,0.0,4.0,100,0.00,,,-99.99,Weather View 32 v60,2013-07-02 02:05:00,
2013-07-01 22:10:00,73.0,73.0,30.12,North,360,0.0,4.0,100,0.00,,,-99.99,Weather View 32 v60,2013-07-02 02:10:00,
2013-07-01 22:20:00,73.0,73.0,30.12,North,360,0.0,4.0,100,0.00,,,-99.99,Weather View 32 v60,2013-07-02 02:20:00,
2013-07-01 22:25:00,73.0,73.0,30.12,NNE,22,0.0,4.0,100,0.00,,,-99.99,Weather View 32 v60,2013-07-02 02:25:00,
2013-07-01 22:35:00,73.0,73.0,30.12,North,360,0.0,4.0,100,0.00,,,-99.99,Weather View 32 v60,2013-07-02 02:35:00,
2013-07-01 22:40:00,73.0,73.0,30.12,NNE,22,0.0,4.0,100,0.00,,,-99.99,Weather View 32 v60,2013-07-02 02:40:00,
2013-07-01 22:45:00,73.0,73.0,30.12,NNE,22,0.0,0.0,100,0.00,,,-99.99,Weather View 32 v60,2013-07-02 02:45:00,
2013-07-01 22:55:00,73.0,73.0,30.11,East,90,0.0,0.0,100,0.00,,,-99.99,Weather View 32 v60,2013-07-02 02:55:00,
2013-07-01 23:00:00,73.0,73.0,30.12,NNE,22,0.0,0.0,100,0.00,,,-99.99,Weather View 32 v60,2013-07-02 03:00:00,
2013-07-01 23:06:00,73.0,73.0,30.12,NNE,22,0.0,0.0,100,0.00,,,-99.99,Weather View 32 v60,2013-07-02 03:06:00,
2013-07-01 23:15:00,73.0,73.0,30.12,NNW,337,0.0,0.0,100,0.00,,,-99.99,Weather View 32 v60,2013-07-02 03:15:00,
2013-07-01 23:25:00,73.0,73.0,30.12,North,360,0.0,0.0,100,0.00,,,-99.99,Weather View 32 v60,2013-07-02 03:25:00,
2013-07-01 23:30:00,73.0,73.0,30.12,NNW,337,0.0,4.0,100,0.00,,,-99.99,Weather View 32 v60,2013-07-02 03:30:00,
2013-07-01 23:40:00,73.0,73.0,30.12,ENE,67,0.0,4.0,100,0.00,,,-99.99,Weather View 32 v60,2013-07-02 03:40:00,
2013-07-01 23:50:00,73.0,73.0,30.12,NNE,22,0.0,4.0,100,0.00,,,-99.99,Weather View 32 v60,2013-07-02 03:50:00,
2013-07-01 23:55:00,72.0,72.0,30.12,SW,225,0.0,4.0,100,0.00,,,-99.99,Weather View 32 v60,2013-07-02 03:55:00,